CZ-6A DEB, 56651

Orbit data source: Space-Track

CZ-6A DEB, 56651 is space debris in SSO originally from a launch on Fri, 11 Nov 2022 UTC launched from the Taiyaun Space Center, China (TSC). Debris objects in space refer to the collection of defunct objects orbiting the Earth. Examples of debris include non-operational satellites, rocket bodies, and fragments generated from explosions, collisions, or faulty payload assembly.

Loading next visibility...
Identifier
56651, 2022-151AGB
Orbit
SSO
Country
Flag of CNCN / PRC
Related business
Manufacturer
SAST
Mission
Spacecraft
Bus & Motor
Unknown
Mass
Unknown
Launch date (UTC)
2022-11-11 (4 years ago)
Launch vehicle
Unknown
Launch site
Taiyaun Space Center, China (TSC)
Object type
Payload
Rocket body
Debris
Shape & HBR
Unknown shape, 0.1 m
Radar Cross Section
Small (<0.1 m²)

Expand to show TLE details & history
Last TLE update: 21 hours ago

TLE from 21 hours ago
0 CZ-6A DEB
1 56651U 22151AGB 26235.64885804  .00012531  00000-0  17632-2 0  9998
2 56651  98.6068 305.7344 0060706  59.6397 301.0794 14.76206606185743
Epoch: 2026-08-23T15:34Z
TLE epoch observation values (Epoch: 2026-08-23T15:34:21.334Z)
Latitude
-0.00005°
Longitude
100.20363°
Altitude
622.507 km
Speed
7.559 km/s
True Right ascension
20h 22m 56s
True Declination
0° 00' 00"
Sunlit
Object was in full shadow at epoch
Visualization orbit readout
Latitude
Unknown
Longitude
Unknown
Altitude
Unknown
Speed
Unknown
Apparent Right ascension
Unknown
Apparent Declination
Unknown
Sunlit
N/A
Visualization observer readout
Local Sidereal Time
03:50:31
Azimuth
Unknown
Elevation
Unknown
Doppler factor
Unknown
Orbital elements
Apogee altitude
680.997 km
Perigee altitude
595.808 km
Semi-major axis
7,016.539 km
Eccentricity
0.00607
Inclination
98.6068°
RAAN
305.7344°
Arg. of periapsis
59.6397°
True anomaly
300.48129°
Mean anomaly
301.0794°
Eccentric anomaly
300.78058°
Mean motion
3.69282 °/min
Orbital period
97.49 mins
BSTAR
0.0017632
Loading maneuver chart data...
Computing Atmospheric mass density...
Loading historical data...
Loading historical data...
Loading historical data...
Loading historical data...
Loading historical data...
Loading historical data...
Loading historical data...

Documentation

Showing up to 5 results
|